Regional Weather Roundup
Issued by NWS

Home | Current Version | Previous Version | Text Only | Print | Product List | Glossary On
Versions: 1 2 3 4 5 6 7 8 9 10 11 12 13 14 15 16 17 18 19 20 21 22 23 24 25 26 27 28 29 30 31 32 33 34 35 36 37 38 39 40 41 42 43 44 45 46 47 48 49 50
000
ASUS43 KLMK 041410
RWRKY
KENTUCKY REGIONAL WEATHER ROUNDUP
NATIONAL WEATHER SERVICE LOUISVILLE KY
1000 AM EDT WED MAY 04 2016

NOTE "FAIR" INDICATES FEW OR NO CLOUDS BELOW 12,000 FEET
WITH NO SIGNIFICANT WEATHER AND/OR OBSTRUCTIONS TO VISIBILITY.

KYZ001>023-026-027-061>063-070>075-041500-
WESTERN AND SOUTH CENTRAL KENTUCKY

CITY           SKY/WX    TMP DP  RH WIND       PRES   REMARKS
PADUCAH        CLOUDY    60  46  59 SW13      29.75F
HENDERSON      CLOUDY    54  46  76 S8        29.72F
OWENSBORO      LGT RAIN  54  51  89 SW7       29.76S FOG
HOPKINSVILLE   MOSUNNY   60  49  65 SW12      29.79F
BOWLING GREEN  CLOUDY    60  48  64 SW8       29.80F
GLASGOW        SUNNY     58  48  68 SW10      29.79F
$$

KYZ024-025-028>034-038-045-046-053-041500-
NORTH CENTRAL KENTUCKY

CITY           SKY/WX    TMP DP  RH WIND       PRES   REMARKS
LOUISVILLE/SDF CLOUDY    59  44  57 SW10      29.73F
LOUISVILLE/LOU CLOUDY    57  43  59 SW8       29.74F
FORT KNOX      CLOUDY    58  45  63 SW10      29.73F
$$

KYZ035>037-039>044-047>052-055>060-089>105-041500-
NORTHEAST KENTUCKY

CITY           SKY/WX    TMP DP  RH WIND       PRES   REMARKS
LEXINGTON      MOSUNNY   57  45  64 SW10      29.75F
COVINGTON      CLOUDY    55  45  68 W12       29.71
FRANKFORT      PTSUNNY   59  43  55 SW13G24   29.73F
$$

KYZ054-064>069-076>088-106>120-041500-
SOUTHEAST KENTUCKY

CITY           SKY/WX    TMP DP  RH WIND       PRES   REMARKS
JACKSON        SUNNY     57  47  69 CALM      29.77F
LONDON         SUNNY     57  43  59 W10       29.80F
SOMERSET       PTSUNNY   55  45  67 W10       29.81F
MIDDLESBORO    MOSUNNY   58  43  57 W6        29.81F
MONTICELLO     SUNNY     60  46  59 W16       29.82F
$$




USA.gov is the U.S. government's official web portal to all federal, state and local government web resources and services.